Weather in Savkino

Russia / Novosibirsk Oblast     53°54′11″N   77°54′15″E
temp.,
°C
wind,
m/s
gust,
m/s
humid.,
%
clouds,
%
prec.,
mm/h
press.,
hPa
HPBL,
m
3 march, wed
wed301:00−18sw339792 0.1 101730
04:00−18sw239782 0.1 101637
07:00−17ssw349783 0.1 101774
10:00−16ssw349685 0.1 1017115
13:00−12sw579388 0.1 1018391
16:00−12ssw6991100 0.0 1018429
19:00−14s5129399 0.0 1019378
22:00−13ssw7149295 0.0 1019375
4 march, thu
thu401:00−10ssw7139298 0.2 1018482
04:00−10ssw71391100 0.1 1016424
07:00−9ssw71392100 0.2 1016414
10:00−7ssw81493100 0.2 1015513
13:00−4ssw91392100 0.6 1015649
16:00−3ssw91592100 0.1 1013678
19:00−2ssw81685100 0.2 1012683
22:00−3ssw91783100 0.0 1011662
5 march, fri
fri501:00−4ssw91692100 0.1 1009608
04:00−4ssw81495100 1.1 1008628
07:00−3ssw91594100 2.3 1007729
10:00−7wsw8158677 0.6 1010459
13:00−8wsw8138948 0.6 1014483
16:00−6sw91586100 0.0 1015715
19:00−5sw101593100 0.8 10161048
22:00−5sw91592100 0.3 1017827
6 march, sat
sat601:00−5sw71491100 0.4 1018684
04:00−3sw81495100 0.4 1017780
07:00−5sw91687100 0.8 1016676
10:00−6ssw91785100 0.0 1015677
13:00−4sw101685100 0.0 1013883
16:00−2sw111686100 0.1 10111083
19:00−2sw101787100 0.2 1011914
22:00−1wsw101688100 0.0 1011994
7 march, sun
sun701:00−4wsw61490100 0.1 1014550
04:00−7wsw4991100 0.0 1015197
07:00−9ssw3494100 0.0 101648
10:00−6s5895100 0.0 1016261
13:00−3s71293100 0.2 1014525
16:00−3ssw9159199 0.0 1012564
19:00−1ssw81590100 0.0 1011704
22:00−1ssw81689100 0.0 1011599